Vertical_Velocity
3 1 -4 -6 -3 -0 -2 1 -1 -2 -2 0 -3 -1 -3 -3 4 2 -1 -1 0 4 13 2 -3 -1 0 3 -1 -8 0 16 7 1 -6 -4 -7 9 13 4 11 4 2 3
8 -1 -2 -1 -0 1 0 -0 -2 -2 -0 5 0 -4 -2 0 -4 -5 -4 -2 1 2 2 3 3 2 -1 -1 1 2 0 -1 1 1 9 8 3 -9 -4 3 5 6 5 7
-2 -2 0 -1 2 3 -0 -2 -1 -4 0 -1 -1 -2 2 -5 3 6 4 3 2 -1 1 0 -2 -2 -3 -3 -3 -1 -1 -1 1 2 1 2 3 2 3 -2 -3 0 4 1
-2 1 -2 0 -1 -2 1 -2 1 -0 -3 -4 -4 -6 -0 -1 0 1 1 -0 2 1 2 1 -0 -2 -1 -3 -2 -0 -1 -0 1 2 3 2 3 -1 3 0 -0 -3 -1 -1
5 1 1 -1 -0 -1 -7 2 -2 -1 -1 -2 0 -2 -13 2 2 -0 0 1 1 2 2 -0 -1 -2 -2 -2 -1 -0 0 -0 1 0 -0 1 3 3 -2 3 2 -0 0 2
2 0 -2 2 1 0 1 -2 -3 -1 -2 -2 -4 -5 -7 -2 -13 1 2 3 0 -0 -1 -1 0 -1 -1 -1 0 -1 0 -0 -1 0 1 -0 -2 1 1 1 1 3 3 4
-2 -0 -1 -0 -3 -3 -3 4 -1 -2 -2 -7 -0 4 -15 -2 -1 -4 -3 2 1 2 0 -1 1 1 -1 -1 -0 -0 0 -2 -3 -1 -2 -2 -1 -0 -1 -1 -0 1 0 0
-3 -4 0 0 -1 -6 -3 1 -7 -5 -2 -4 -1 -4 -17 -2 -0 1 -1 -4 1 2 2 -0 -1 -0 -0 -1 1 0 1 -1 -2 -1 -1 -1 -1 -1 -0 -0 0 0 1 -0
-2 2 1 1 0 -10 -1 2 -5 -3 -1 -4 -4 -5 -7 -1 3 4 2 3 2 1 1 -1 -1 -1 -0 1 -1 -1 -1 -1 -1 1 -0 -1 1 -1 -1 -2 -1 -2 -1 1
2 -1 0 1 1 1 4 1 -5 -3 -2 -0 -2 -1 -5 2 2 2 3 1 2 2 -1 -2 -1 -1 -2 -1 -1 -0 -0 0 0 -1 -1 -0 0 -0 0 1 1 -0 -1 -1
-1 -5 6 2 -0 -3 3 2 1 -3 -3 -4 -1 -8 -4 -5 -4 -2 -0 -1 -1 -1 -1 -2 -1 -1 -1 -1 -1 -1 -1 0 -0 -2 0 -1 -1 -0 -0 -0 -1 -0 -1 1
0 -3 -1 -2 -1 -3 -2 -2 -1 -4 -2 -1 -4 -12 0 -1 -1 -2 -0 -0 1 1 -1 -1 -0 -0 -1 -1 -2 -1 -0 -1 -1 -1 -0 -0 -2 -2 -1 -1 -2 -1 -2 -1
-2 -1 -1 -3 -9 0 1 0 -1 0 -2 -2 -4 -10 -0 1 1 3 -3 1 -0 -0 -1 -0 -0 -1 -0 -0 -2 0 0 0 -1 0 -2 -1 -2 -2 -1 -0 -1 -2 -0 -1
-1 -0 -5 -9 -7 -4 1 1 0 -3 -2 -2 -4 -0 1 2 -0 2 1 -0 -0 -1 -1 -1 0 -1 -1 1 -1 0 1 -0 0 -0 -1 -1 -2 -2 -0 -1 -0 -1 -2 -0
-4 -2 -0 -0 -0 -0 -1 -1 0 -1 -3 -6 -4 -1 -4 -4 -3 -5 -4 4 3 1 0 0 -0 -1 -2 -1 -0 0 0 1 -4 -1 -3 -1 -3 0 0 -1 -0 0 2 -1
-0 -2 -1 -2 0 0 0 -0 0 -0 0 1 0 -3 -2 -1 6 3 -3 -0 0 1 2 1 1 0 -0 -1 2 2 -2 -1 0 1 -0 1 -1 -1 0 1 -1 -2 -2 -3
-2 -2 -2 -2 -0 -0 -5 -9 -2 -1 0 -6 -3 -13 -0 1 1 -1 -0 0 -2 -1 -1 -2 -1 -0 -2 -1 -1 -0 1 0 -2 2 0 -1 -2 1 -2 -1 -4 -3 0 2
-1 -1 -1 -2 -2 -6 -18 0 -3 -4 -3 0 1 -1 -1 -4 -1 -1 -1 -3 -2 -2 -1 -1 -1 -0 1 -1 -1 -2 0 -0 2 0 -1 -3 0 -3 -3 -2 -2 1 2 1
-2 -1 -1 -4 -1 -11 -1 -2 -3 -6 -9 -3 -2 -0 1 1 2 0 0 0 -0 -1 1 1 0 -1 -1 -2 0 -1 1 0 -1 -3 -1 1 -4 -2 -2 0 -1 -1 1 1
-0 -1 -6 1 -1 -2 -4 -1 1 -1 -3 -0 -2 -2 -0 2 1 -5 -1 -1 -2 -1 -1 -2 0 -1 0 -1 -2 -0 -1 -1 -2 -0 -0 -1 -2 -1 0 -0 -0 -1 1 1
0 1 -2 -1 -1 -7 -3 -1 0 -4 -10 0 -0 -3 1 -2 -7 -2 1 -0 -1 -1 -2 -0 -1 0 -0 -1 -1 0 1 -0 -2 -0 0 -1 -2 -1 0 1 -0 0 -1 1
-5 -2 -1 2 2 -8 -1 1 -2 -5 3 -1 0 0 0 -0 -2 -1 -1 -1 -2 -2 -2 -3 -2 -2 1 2 2 -1 -1 -0 1 -3 -1 -2 1 -1 0 1 1 1 1 -0
-4 -10 -7 -11 -12 -3 -2 -2 1 0 -3 -1 -1 -0 -2 0 0 -0 -1 -1 -0 0 0 1 2 -0 -1 1 -1 -2 -2 -1 -1 -0 -1 -1 -1 -0 0 -0 2 1 -1 -2
-0 -0 -1 -2 -4 -2 -2 1 -1 -1 -1 -1 1 2 -1 -2 -2 -0 0 0 -0 0 2 0 -2 -1 -1 -1 -2 0 -1 -1 -1 -2 -2 -1 -1 1 -0 -0 0 0 -0 -0
-8 -2 -3 -3 -3 0 2 1 -2 -2 -1 -2 0 0 2 -1 -2 -1 -1 -1 1 0 -3 -2 -3 -1 1 -1 -1 -1 -1 -0 0 -0 -0 -0 0 0 0 -1 -0 -0 -1 -1
-2 -5 -4 -7 -3 -1 -2 -1 5 1 -2 -1 0 1 1 2 0 0 -1 -0 -1 -3 -3 -1 -0 0 -0 -1 1 -5 -2 -1 -2 -0 0 1 2 2 0 -1 1 -0 -2 -1
Height
1484 1488 1487 1489 1497 1498 1504 1510 1510 1506 1503 1507 1507 1510 1510 1508 1508 1508 1511 1513 1515 1516 1518 1517 1519 1521 1523 1524 1525 1527 1528 1530 1530 1531 1531 1532 1533 1536 1538 1539 1541 1541 1541 1541
1486 1486 1490 1492 1497 1500 1501 1506 1508 1504 1500 1504 1506 1506 1507 1505 1505 1505 1507 1508 1510 1512 1513 1514 1515 1516 1518 1521 1522 1523 1524 1526 1527 1527 1529 1528 1529 1530 1531 1533 1534 1536 1537 1538
1484 1485 1487 1491 1496 1501 1502 1506 1506 1504 1501 1503 1506 1511 1507 1503 1502 1501 1502 1504 1507 1508 1509 1510 1511 1512 1514 1516 1517 1518 1519 1520 1522 1522 1523 1523 1524 1523 1524 1526 1527 1529 1530 1531
1484 1483 1487 1491 1496 1499 1505 1497 1499 1501 1508 1519 1507 1520 1500 1495 1497 1497 1498 1500 1502 1505 1507 1508 1508 1510 1511 1511 1512 1512 1513 1514 1516 1517 1517 1518 1519 1519 1519 1520 1521 1523 1523 1523
1490 1487 1491 1496 1498 1500 1502 1493 1496 1502 1510 1510 1510 1519 1497 1489 1497 1494 1494 1496 1498 1501 1503 1505 1506 1508 1508 1509 1510 1510 1510 1510 1511 1511 1512 1513 1514 1514 1515 1516 1516 1516 1517 1518
1494 1493 1496 1499 1503 1504 1502 1498 1500 1505 1511 1529 1510 1516 1500 1492 1481 1488 1490 1493 1496 1499 1502 1505 1507 1508 1508 1508 1508 1508 1508 1508 1508 1508 1508 1507 1508 1508 1509 1509 1510 1511 1512 1513
1499 1501 1500 1501 1504 1505 1507 1511 1520 1523 1532 1526 1503 1511 1488 1481 1479 1481 1486 1491 1495 1498 1501 1504 1506 1507 1507 1507 1506 1506 1506 1505 1505 1505 1505 1505 1505 1504 1504 1504 1504 1505 1506 1506
1504 1512 1501 1502 1502 1506 1512 1505 1518 1518 1522 1516 1504 1506 1486 1477 1475 1477 1483 1489 1494 1497 1499 1502 1504 1504 1504 1504 1504 1503 1502 1502 1502 1502 1502 1502 1501 1501 1501 1500 1500 1500 1501 1502
1497 1500 1504 1503 1502 1503 1503 1506 1498 1508 1506 1522 1505 1491 1480 1478 1477 1479 1483 1487 1492 1495 1497 1500 1501 1502 1502 1501 1500 1500 1499 1499 1499 1498 1498 1498 1497 1497 1496 1496 1496 1496 1497 1498
1486 1498 1499 1500 1499 1500 1500 1499 1505 1517 1513 1506 1503 1494 1488 1483 1480 1481 1484 1486 1490 1493 1495 1497 1499 1499 1499 1499 1498 1497 1496 1496 1495 1495 1495 1494 1493 1493 1493 1492 1492 1492 1492 1493
1480 1484 1498 1500 1496 1495 1501 1500 1500 1498 1506 1512 1502 1492 1473 1474 1474 1477 1481 1485 1489 1492 1493 1495 1496 1497 1497 1497 1496 1495 1495 1494 1493 1493 1492 1491 1491 1491 1490 1489 1489 1488 1488 1488
1475 1486 1495 1490 1491 1492 1493 1494 1492 1505 1495 1506 1515 1492 1467 1469 1474 1477 1481 1484 1487 1489 1491 1493 1494 1495 1495 1495 1495 1494 1493 1492 1491 1491 1490 1489 1488 1488 1488 1487 1486 1485 1484 1484
1474 1488 1505 1495 1496 1491 1490 1487 1489 1493 1498 1502 1513 1492 1473 1472 1476 1478 1480 1483 1485 1487 1489 1491 1492 1493 1493 1493 1493 1493 1492 1490 1490 1489 1488 1487 1486 1486 1486 1484 1483 1481 1481 1480
1472 1479 1485 1496 1483 1485 1490 1483 1484 1492 1503 1490 1497 1481 1478 1476 1476 1477 1478 1480 1482 1484 1487 1488 1490 1490 1491 1491 1490 1490 1489 1488 1487 1486 1486 1486 1484 1484 1484 1482 1481 1481 1480 1478
1473 1481 1477 1476 1475 1477 1480 1479 1483 1491 1484 1496 1480 1478 1472 1472 1472 1473 1475 1478 1480 1481 1483 1485 1486 1487 1488 1488 1488 1488 1487 1485 1486 1485 1485 1484 1483 1482 1481 1480 1480 1480 1479 1478
1473 1490 1490 1496 1477 1478 1481 1477 1477 1480 1479 1478 1479 1479 1468 1468 1470 1471 1473 1476 1477 1478 1480 1482 1483 1484 1485 1486 1486 1485 1483 1485 1484 1484 1483 1482 1481 1481 1480 1479 1479 1481 1480 1478
1474 1484 1494 1494 1478 1481 1490 1469 1469 1470 1469 1468 1477 1468 1464 1466 1467 1469 1472 1473 1473 1475 1476 1478 1480 1481 1481 1483 1483 1482 1483 1483 1483 1482 1481 1480 1481 1480 1480 1480 1481 1481 1480 1478
1475 1480 1492 1497 1487 1502 1462 1454 1456 1458 1460 1463 1463 1463 1463 1464 1465 1467 1468 1469 1471 1472 1473 1474 1475 1477 1479 1479 1480 1479 1481 1480 1481 1479 1479 1479 1478 1479 1481 1481 1481 1481 1481 1480
1468 1471 1487 1489 1489 1471 1456 1454 1455 1459 1458 1455 1457 1458 1460 1462 1463 1465 1465 1466 1468 1469 1471 1471 1473 1474 1476 1476 1477 1477 1478 1477 1478 1478 1478 1477 1479 1480 1481 1482 1482 1483 1483 1482
1467 1468 1481 1479 1487 1473 1450 1448 1448 1449 1453 1446 1448 1453 1456 1461 1464 1461 1461 1463 1465 1466 1467 1468 1470 1471 1473 1474 1474 1475 1475 1476 1476 1476 1477 1477 1480 1481 1482 1484 1484 1484 1484 1484
1471 1471 1476 1481 1476 1463 1448 1447 1448 1455 1453 1444 1444 1449 1453 1456 1456 1457 1458 1461 1463 1464 1466 1467 1468 1470 1471 1472 1472 1473 1473 1473 1474 1475 1476 1478 1480 1482 1483 1484 1485 1485 1485 1484
1465 1463 1473 1476 1472 1473 1446 1449 1451 1447 1446 1446 1447 1450 1451 1453 1455 1456 1458 1460 1461 1462 1463 1464 1466 1467 1468 1469 1469 1470 1471 1472 1473 1475 1477 1479 1482 1483 1484 1485 1486 1485 1484 1484
1460 1454 1457 1460 1457 1445 1445 1445 1444 1445 1446 1447 1448 1449 1450 1452 1454 1455 1456 1458 1459 1460 1462 1462 1463 1464 1465 1466 1466 1467 1469 1471 1473 1476 1478 1480 1482 1483 1484 1485 1485 1484 1483 1484
1445 1445 1449 1449 1442 1442 1442 1444 1444 1445 1446 1447 1447 1448 1448 1450 1451 1452 1453 1455 1456 1457 1458 1459 1460 1461 1462 1463 1465 1467 1468 1471 1473 1475 1477 1479 1481 1483 1483 1484 1484 1484 1484 1483
1442 1442 1444 1445 1440 1440 1440 1440 1442 1444 1445 1446 1448 1448 1448 1448 1449 1450 1450 1451 1452 1454 1456 1457 1458 1459 1460 1461 1463 1465 1468 1470 1472 1474 1476 1478 1480 1481 1481 1482 1483 1483 1483 1483
1436 1438 1443 1444 1437 1437 1437 1437 1439 1441 1443 1445 1446 1447 1447 1446 1446 1446 1447 1448 1449 1451 1453 1454 1455 1456 1457 1459 1461 1463 1466 1468 1471 1473 1475 1477 1478 1479 1479 1480 1481 1481 1481 1480